Drummond Island, MI

6:21 PM EST on February 25, 2017 (GMT -0500)
Drummond Island

Weather History for KDRM - April, 2014

Change the Weather History Date:

Tuesday, April 22, 2014

  Actual Average (KCIU) Record (KCIU)
Temperature  
Mean Temperature 40 °F -  
Max Temperature 45 °F 54 °F 78 °F (2007)
Min Temperature 34 °F 28 °F 20 °F (1982)
Degree Days  
Heating Degree Days 26    
Moisture  
Dew Point 32 °F    
Average Humidity 78    
Maximum Humidity 94    
Minimum Humidity 62    
Precipitation  
Precipitation 0.00 in - - ()
Sea Level Pressure  
Sea Level Pressure 29.76 in    
Wind  
Wind Speed 6 mph (NW)    
Max Wind Speed 12 mph    
Max Gust Speed 24 mph    
Visibility 10 miles    
Events      
Averages and records for this station are not official NWS values.
T = Trace of Precipitation, MM = Missing Value Source: NWS Daily Summary

Daily Weather History Graph

Daily Weather History Graph

Search for Another Location

Airport or City:

Trip Planner

Search our weather history database for the weather conditions in past years. The results will help you decide how hot, cold, wet, or windy it might be!

Date:

Astronomy

Apr. 22, 2014 Rise Set
Actual Time 6:36 AM EDT 8:31 PM EDT
Civil Twilight 6:04 AM EDT 9:03 PM EDT
Nautical Twilight 5:25 AM EDT 9:42 PM EDT
Astronomical Twilight 4:42 AM EDT 10:26 PM EDT
Moon 2:47 AM EDT (4/22) 1:09 PM EDT (4/22)
Length of Visible Light 14h 58m
Length of Day
13h 54m
Last Quarter, 46% of the Moon is Illuminated
Apr 22
Last Quarter
Apr 29
New
May 6
First Quarter
May 14
Full
May 21
Last Quarter

Hourly Weather History & Observations

Time (EDT) Temp. Windchill Dew Point Humidity Pressure Visibility Wind Dir Wind Speed Gust Speed Precip Events Conditions
12:15 AM 37.6 °F - 36.0 °F 94% 29.71 in 5.0 mi Calm Calm - N/A   Overcast
12:35 AM 38.3 °F - 36.5 °F 93% 29.71 in 7.0 mi Calm Calm - N/A   Overcast
12:55 AM 37.9 °F - 35.6 °F 91% 29.70 in 5.0 mi Calm Calm - N/A   Mostly Cloudy
1:15 AM 38.8 °F - 36.5 °F 91% 29.71 in 5.0 mi Calm Calm - N/A   Overcast
1:35 AM 39.2 °F 33.6 °F 37.0 °F 92% 29.70 in 5.0 mi WNW 8.1 mph - N/A   Overcast
1:55 AM 37.4 °F 31.4 °F 34.0 °F 87% 29.71 in 10.0 mi NW 8.1 mph - N/A   Mostly Cloudy
2:15 AM 36.3 °F 30.1 °F 32.9 °F 87% 29.70 in 10.0 mi NW 8.1 mph - N/A   Clear
2:35 AM 35.2 °F 28.8 °F 32.2 °F 89% 29.70 in 10.0 mi NW 8.1 mph - N/A   Clear
2:55 AM 34.9 °F 29.9 °F 32.2 °F 90% 29.69 in 10.0 mi NW 5.8 mph - N/A   Clear
3:15 AM 34.9 °F 29.9 °F 32.4 °F 91% 29.69 in 10.0 mi NW 5.8 mph - N/A   Mostly Cloudy
3:35 AM 35.1 °F 29.3 °F 32.2 °F 89% 29.69 in 10.0 mi NW 6.9 mph - N/A   Overcast
3:55 AM 35.6 °F 29.2 °F 32.2 °F 87% 29.69 in 10.0 mi NW 8.1 mph - N/A   Overcast
4:15 AM 35.8 °F 28.8 °F 32.0 °F 86% 29.68 in 10.0 mi WNW 9.2 mph - N/A   Overcast
4:35 AM 35.6 °F 28.6 °F 32.0 °F 87% 29.68 in 10.0 mi NW 9.2 mph - N/A   Overcast
4:55 AM 35.2 °F 27.6 °F 32.0 °F 88% 29.68 in 10.0 mi WNW 10.4 mph 17.3 mph N/A   Mostly Cloudy
5:15 AM 35.6 °F 29.2 °F 32.0 °F 87% 29.69 in 10.0 mi NW 8.1 mph - N/A   Mostly Cloudy
5:35 AM 35.6 °F 29.9 °F 32.0 °F 87% 29.69 in 10.0 mi WNW 6.9 mph - N/A   Overcast
6:15 AM 35.8 °F 30.1 °F 32.0 °F 86% 29.69 in 10.0 mi WNW 6.9 mph - N/A   Overcast
6:35 AM 35.6 °F 30.7 °F 32.0 °F 87% 29.69 in 10.0 mi WNW 5.8 mph - N/A   Overcast
6:55 AM 35.6 °F 30.7 °F 32.0 °F 87% 29.70 in 10.0 mi WNW 5.8 mph - N/A   Overcast
7:15 AM 35.6 °F 29.9 °F 32.2 °F 87% 29.70 in 10.0 mi WNW 6.9 mph - N/A   Overcast
7:35 AM 35.6 °F 30.7 °F 32.4 °F 88% 29.70 in 10.0 mi WNW 5.8 mph - N/A   Overcast
7:55 AM 35.6 °F 30.7 °F 32.4 °F 88% 29.70 in 10.0 mi WNW 5.8 mph - N/A   Overcast
8:15 AM 35.8 °F 28.8 °F 32.5 °F 88% 29.70 in 10.0 mi WNW 9.2 mph - N/A   Overcast
8:35 AM 35.6 °F 31.7 °F 32.7 °F 89% 29.70 in 10.0 mi NW 4.6 mph - N/A   Overcast
8:55 AM 35.6 °F 29.9 °F 32.9 °F 90% 29.70 in 10.0 mi WNW 6.9 mph - N/A   Overcast
9:15 AM 36.0 °F 30.3 °F 33.3 °F 90% 29.70 in 10.0 mi WNW 6.9 mph - N/A   Overcast
9:35 AM 35.6 °F 31.7 °F 33.1 °F 91% 29.71 in 10.0 mi NW 4.6 mph - N/A   Overcast
9:55 AM 36.1 °F 30.6 °F 33.6 °F 91% 29.70 in 10.0 mi WNW 6.9 mph - N/A   Overcast
10:15 AM 36.5 °F 31.0 °F 33.6 °F 89% 29.70 in 10.0 mi WNW 6.9 mph - N/A   Overcast
10:35 AM 36.5 °F 31.0 °F 33.6 °F 89% 29.70 in 10.0 mi WNW 6.9 mph - N/A   Overcast
10:55 AM 37.0 °F 30.4 °F 33.8 °F 88% 29.70 in 10.0 mi WNW 9.2 mph - N/A   Overcast
11:15 AM 39.4 °F 34.5 °F 34.5 °F 83% 29.70 in 10.0 mi WNW 6.9 mph - N/A   Overcast
11:35 AM 42.1 °F 36.6 °F 34.0 °F 73% 29.70 in 10.0 mi WNW 9.2 mph - N/A   Mostly Cloudy
11:55 AM 42.1 °F 36.6 °F 33.6 °F 72% 29.70 in 10.0 mi WNW 9.2 mph - N/A   Mostly Cloudy
12:15 PM 44.6 °F 40.2 °F 34.2 °F 67% 29.70 in 10.0 mi NW 8.1 mph 16.1 mph N/A   Mostly Cloudy
12:35 PM 43.9 °F 38.8 °F 33.6 °F 67% 29.71 in 10.0 mi NW 9.2 mph 17.3 mph N/A   Overcast
12:55 PM 43.9 °F 37.9 °F 33.1 °F 66% 29.71 in 10.0 mi WNW 11.5 mph 18.4 mph N/A   Overcast
1:15 PM 43.7 °F 38.6 °F 32.7 °F 65% 29.71 in 10.0 mi WNW 9.2 mph 17.3 mph N/A   Overcast
1:34 PM 43.2 °F 38.4 °F 32.4 °F 66% 29.71 in 10.0 mi WNW 8.1 mph 17.3 mph N/A   Overcast
1:55 PM 45.5 °F 41.3 °F 33.1 °F 62% 29.71 in 10.0 mi WNW 8.1 mph 17.3 mph N/A   Mostly Cloudy
2:15 PM 43.3 °F 37.2 °F 32.0 °F 64% 29.72 in 10.0 mi WNW 11.5 mph 19.6 mph N/A   Overcast
2:35 PM 43.7 °F 38.6 °F 32.0 °F 63% 29.73 in 10.0 mi WNW 9.2 mph 20.7 mph N/A   Overcast
2:55 PM 43.2 °F 37.4 °F 31.3 °F 63% 29.73 in 10.0 mi WNW 10.4 mph 23.0 mph N/A   Overcast
3:15 PM 41.9 °F 35.4 °F 30.9 °F 65% 29.74 in 10.0 mi WNW 11.5 mph 19.6 mph N/A   Overcast
3:35 PM 41.4 °F 35.7 °F 31.1 °F 67% 29.75 in 10.0 mi WNW 9.2 mph 19.6 mph N/A   Overcast
3:55 PM 42.6 °F 36.3 °F 30.9 °F 63% 29.75 in 10.0 mi WNW 11.5 mph 24.2 mph N/A   Overcast
4:15 PM 44.1 °F 39.5 °F 31.6 °F 62% 29.76 in 10.0 mi WNW 8.1 mph 19.6 mph N/A   Overcast
4:35 PM 41.5 °F 37.1 °F 30.9 °F 66% 29.76 in 10.0 mi WNW 6.9 mph 17.3 mph N/A   Overcast
4:55 PM 43.2 °F 37.0 °F 30.9 °F 62% 29.77 in 10.0 mi NW 11.5 mph 18.4 mph N/A   Overcast
5:15 PM 43.2 °F 37.9 °F 30.9 °F 62% 29.78 in 10.0 mi NW 9.2 mph 19.6 mph N/A   Overcast
5:35 PM 41.9 °F 35.4 °F 30.7 °F 65% 29.79 in 10.0 mi NW 11.5 mph 21.9 mph N/A   Overcast
5:55 PM 40.6 °F 34.8 °F 30.7 °F 68% 29.80 in 10.0 mi NW 9.2 mph 23.0 mph N/A   Overcast
6:15 PM 40.3 °F 33.4 °F 31.1 °F 70% 29.82 in 10.0 mi NW 11.5 mph 18.4 mph N/A   Overcast
6:35 PM 39.6 °F 33.5 °F 31.1 °F 72% 29.83 in 10.0 mi NW 9.2 mph 17.3 mph N/A   Overcast
6:55 PM 38.7 °F 32.4 °F 30.7 °F 73% 29.85 in 10.0 mi NW 9.2 mph 18.4 mph N/A   Overcast
7:15 PM 37.9 °F 32.7 °F 30.6 °F 75% 29.86 in 10.0 mi NW 6.9 mph 16.1 mph N/A   Overcast
7:35 PM 37.6 °F 32.3 °F 30.2 °F 75% 29.87 in 10.0 mi NW 6.9 mph - N/A   Overcast
7:55 PM 37.4 °F 32.8 °F 30.2 °F 75% 29.87 in 10.0 mi WNW 5.8 mph - N/A   Overcast
8:15 PM 36.0 °F 32.1 °F 30.2 °F 80% 29.88 in 10.0 mi WNW 4.6 mph - N/A   Overcast
8:35 PM 36.5 °F 32.7 °F 29.8 °F 77% 29.89 in 10.0 mi WNW 4.6 mph - N/A   Overcast
8:55 PM 35.6 °F 32.8 °F 30.2 °F 81% 29.90 in 10.0 mi WNW 3.5 mph - N/A   Overcast
9:15 PM 35.6 °F 31.7 °F 30.0 °F 80% 29.91 in 10.0 mi NW 4.6 mph - N/A   Overcast
9:35 PM 35.6 °F 31.7 °F 29.8 °F 80% 29.92 in 10.0 mi WNW 4.6 mph - N/A   Overcast
9:55 PM 36.7 °F 31.2 °F 28.4 °F 72% 29.93 in 10.0 mi NNW 6.9 mph - N/A   Overcast
10:15 PM 37.0 °F 34.5 °F 28.2 °F 70% 29.93 in 10.0 mi NNW 3.5 mph - N/A   Overcast
10:35 PM 36.7 °F 32.9 °F 27.7 °F 70% 29.93 in 10.0 mi NNW 4.6 mph - N/A   Overcast
10:55 PM 36.7 °F 30.5 °F 27.5 °F 69% 29.94 in 10.0 mi North 8.1 mph - N/A   Overcast
11:15 PM 36.5 °F 31.0 °F 27.1 °F 69% 29.94 in 10.0 mi North 6.9 mph - N/A   Overcast
11:34 PM 35.6 °F 29.2 °F 27.1 °F 71% 29.95 in 10.0 mi North 8.1 mph - N/A   Overcast
11:55 PM 35.6 °F 29.2 °F 27.1 °F 71% 29.94 in 10.0 mi North 8.1 mph - N/A   Overcast